sat.trackr.live / text

‹ back to catalog

STARLINK-37263

NORAD 68544 · 2026-070C

PAYLOAD ACTIVE UNKNOWN

§ Identity

Operator
Country
US
Launch date
2026-04-02
Launch site
AFETR
Launch vehicle
Mass (kg)
RCS (m²)

Purposes: comms

External: N2YO · Heavens-Above · Gunter

§ Orbital elements

Epoch: 2026-05-25T00:18:38.397024Z

Period
93.85 min
Inclination
53.1622°
Eccentricity
0.0000360
Mean motion
15.34402289 rev/d
Perigee alt
462.5 km
Apogee alt
462.9 km
Semi-major
6,840.8 km
B*
7.8778e-4
RAAN
7.8316°
Arg perigee
16.6729°
Mean anomaly
343.4285°
Rev number
824

§ Raw data

STARLINK-372631 68544U 26070C   26145.01294441  .00026336  00000+0  78778-3 0  99942 68544  53.1622   7.8316 0000360  16.6729 343.4285 15.34402289  8244

JSON: /api/v1/satellites/68544 · /tle

For live sub-satellite position, see the globe view (requires WebGL).

§ Visibility from observer

Set your observer location to see the next 7 days of passes ≥ 10°. The values pass through the URL so the page stays shareable.

No JS? Fill the form by hand. The geolocation button needs JavaScript.